{"data":{"norad_id":54249,"epoch":"2026-09-21T22:28:55.993152Z","epoch_age_seconds":38067,"freshness":"FRESH","line1":"1 54249U 22154A   26264.93675918 -.00000089  00000+0  23735-5 0  9998","line2":"2 54249  63.4083  13.6957 0049546 351.6946   8.3255 13.45517080189277","mean_motion":13.4551708,"eccentricity":0.0049546,"inclination_deg":63.4083,"raan_deg":13.6957,"arg_perigee_deg":351.6946,"mean_anomaly_deg":8.3255,"bstar":2.3735e-6,"rev_number":18927,"period_min":107.02205281556,"perigee_km":1051.8022180695,"apogee_km":1125.7935693181,"semimajor_km":7466.9348936938,"source":"CELESTRAK","updated_at":"2026-09-22T09:00:25.142778Z"}}